CZ-8A R/B

Last updated on Mon Dec 15 2025 00:02:13 GMT+0000 (Coordinated Universal Time)

1 66924U 25285K 25348.05841204 .00000046 00000+0 75122-4 0 9995 2 66924 50.0067 110.5412 0119329 111.3842 249.9855 14.30502477 1114
UTC large
Height (km)
Speed (km/s)
/
Latitude / Longitude
Inclination (degrees)
Orbital Period (minutes)
Azimuth
Elevation
Range (km)
Doppler Factor

Next 0 passes for location: London (51.5072 / 0.1276)

Sorry there are no passes over London.